Regional Weather Roundup
Issued by NWS

Home | Current Version | Previous Version | Graphics & Text | Print | Product List | Glossary Off
Versions: 1 2 3 4 5 6 7 8 9 10 11 12 13 14 15 16 17 18 19 20 21 22 23 24 25 26 27 28 29 30 31 32 33 34 35 36 37 38 39 40 41 42 43 44 45 46 47 48 49 50

000
ASUS44 KMEG 211710
RWRTN
TENNESSEE HOURLY STATE WEATHER ROUNDUP
NATIONAL WEATHER SERVICE MEMPHIS TN
1200 PM CDT SAT OCT 21 2017

TNZ002-004-019-021-049-052-054-088>092-211800-
WEST TENNESSEE

CITY           SKY/WX    TMP DP  RH WIND       PRES   REMARKS
MEMPHIS INTL   MOSUNNY   77  60  55 SE14      30.12F
NWS MEMPHIS      N/A     75 N/A N/A MISG        N/A
JACKSON        SUNNY     76  58  53 VRB7G17   30.16F
DYERSBURG        N/A     72  54  53 SE7       30.14S
SOMERVILLE     SUNNY     77  57  50 S12G18    30.13F
COVINGTON      SUNNY     77  57  50 S9G17     30.13S
UNION CITY     SUNNY     77  52  41 SE15      30.13F
BOLIVAR        SUNNY     73  57  56 SE10G17   30.15F
HUNTINGDON     SUNNY     73  52  46 S13       30.16F
LEXINGTON      SUNNY     72  55  56 S6G12     30.19S
SELMER         SUNNY     72  59  64 S7        30.18F
SAVANNAH       SUNNY     75  59  57 S13       30.18F
$$

TNZ008-025-027-028-033-062-065-066-211800-
NORTH MIDDLE TENNESSEE

CITY           SKY/WX    TMP DP  RH WIND       PRES   REMARKS
NASHVILLE      CLOUDY    76  53  44 S13       30.23F
PORTLAND       SUNNY     72  52  49 S12       30.23F
CLARKSVILLE    PTSUNNY   71  50  47 S7        30.20F
SMYRNA         MOSUNNY   76  55  48 S14       30.24F
COOKEVILLE     SUNNY     75  50  41 S10       30.27F
GALLATIN       SUNNY     75  52  43 VRB6      30.26F
CROSSVILLE     SUNNY     70  44  39 VRB7      30.31F
$$

TNZ061-075-076-078-094-096-097-211800-
SOUTH MIDDLE TENNESSEE

CITY           SKY/WX    TMP DP  RH WIND       PRES   REMARKS
FAYETTEVILLE   SUNNY     75  59  57 S12       30.24F
TULLAHOMA      SUNNY     73  54  49 S9        30.26F
WINCHESTER     SUNNY     73  57  56 SE12        N/A
COLUMBIA       SUNNY     73  59  60 S14       30.20F
SHELBYVILLE    SUNNY     73  57  56 S13       30.23F
$$

TNZ017-018-042-046-047-211800-
NORTHEAST TENNESSEE

CITY           SKY/WX    TMP DP  RH WIND       PRES   REMARKS
TRI CITIES     PTSUNNY   71  51  49 CALM      30.32F
ELIZABETHTON   SUNNY     75  46  35 CALM      30.32F
$$

TNZ012-013-036-069-073-074-211800-
CENTRAL EAST TENNESSEE

CITY           SKY/WX    TMP DP  RH WIND       PRES   REMARKS
KNOXVILLE      CLOUDY    67  55  65 CALM      30.31S
DOWNTOWN KNOXV SUNNY     68  54  60 CALM      30.31F
GATLINBURG     SUNNY     70  50  49 CALM      30.30F
MORRISTOWN     SUNNY     70  48  46 E5        30.31S
JACKSBORO      SUNNY     66  54  63 CALM      30.35F
$$

TNZ083-085-099-211800-
SOUTHEAST TENNESSEE

CITY           SKY/WX    TMP DP  RH WIND       PRES   REMARKS
CHATTANOOGA    PTSUNNY   73  53  49 CALM      30.29F
DAYTON         SUNNY     66  55  68 CALM      30.29F
$$

SKY/WX REPORTED AS FAIR MEANS FEW OR NO CLOUDS BELOW
12 THOUSAND FEET.





USA.gov is the U.S. government's official web portal to all federal, state and local government web resources and services.